Weather Roundup
Issued by NWS Springfield, MO

Home | Current Version | Previous Version | Text Only | Print | Product List | Glossary On
Versions: 1 2 3 4 5 6 7 8 9 10 11 12 13 14 15 16 17 18 19 20 21 22 23 24 25 26 27 28 29 30 31 32 33 34 35 36 37 38 39 40 41 42 43 44 45 46 47 48 49 50
000
NZUS99 KSGF 212007
HRRSGF

HOURLY WEATHER
NATIONAL WEATHER SERVICE SPRINGFIELD MO
300 PM CDT THU AUG 21 2014

......SGF CWA......

CITY           SKY/WX    TMP DP  RH WIND       PRES   REMARKS
SPRINGFIELD    SUNNY     97  65  34 SW16G22   29.99F HX  99
JOPLIN         MOSUNNY   96  69  41 S15       29.97F HX 102
WEST PLAINS    MOSUNNY   93  69  45 S9        30.04F HX  98
ROLLA          MOSUNNY   92  71  50 SW9G16    29.97F HX  98
OSAGE BEACH    MOSUNNY   97  70  41 SW12      29.95F HX 103
BRANSON        MOSUNNY   97  64  34 S10       30.04F HX  99

......SURROUNDING SGF CWA......

CITY           SKY/WX    TMP DP  RH WIND       PRES   REMARKS
CHANUTE        MOSUNNY   96  70  42 S20G28    29.93F HX 102
PARSONS        MOSUNNY   95  73  48 S13G21    29.95F HX 104
COFFEYVILLE    SUNNY     95  73  48 S16G26    29.93F HX 104
EMPORIA        SUNNY     96  69  41 S18G28    29.88F HX 102
GROVE OK       SUNNY     95  70  43 S16       29.99F HX 101
ROGERS AR      SUNNY     92  67  43 S14G21    30.04F HX  95
SILOAM SPRINGS SUNNY     90  70  51 S14G22    30.04F HX  95
HARRISON AR    SUNNY     90  69  50 S13G20    30.05F HX  94
NEAR YELLVILLE   N/A     93  64  38 SW10      30.02F HX  95

......KANSAS AND MISSOURI......

CITY           SKY/WX    TMP DP  RH WIND       PRES   REMARKS
KANSAS CTY INT PTSUNNY   93  75  55 S12       29.89F HX 104
DOWNTOWN KC    MOSUNNY   95  71  45 SW15      29.87F HX 102
COLUMBIA       SUNNY     94  73  50 SW14      29.94F HX 103
SEDALIA        MOSUNNY   94  73  50 SW14      29.94F HX 103
ST JOSEPH      PTSUNNY   92  76  59 S17       29.84F HX 104
ST LOUIS       PTSUNNY   95  74  50 S12       29.96  HX 105
SPIRIT OF STL  MOSUNNY   93  74  53 SW13      29.94F HX 103
KIRKSVILLE     MOSUNNY   91  75  59 VRB7      29.93F HX 101
WICHITA        MOSUNNY   98  66  34 S23G32    29.87F HX 101
TOPEKA         SUNNY     98  69  38 S15G23    29.85F HX 104
OLATHE         MOSUNNY   93  72  50 SW13      29.89F HX 101

......TENNESSEE......

CITY           SKY/WX    TMP DP  RH WIND       PRES   REMARKS
MEMPHIS        MOSUNNY   96  72  45 W9G20     30.07F HX 104
NASHVILLE      PTSUNNY   93  70  46 SW10      30.09F HX  99

......ARKANSAS.......

CITY           SKY/WX    TMP DP  RH WIND       PRES   REMARKS
FAYETTEVILLE   SUNNY     90  70  51 S13G21    30.04F HX  95
FT SMITH       SUNNY     92  72  51 S12       30.01F HX  99
LITTLE ROCK    MOSUNNY   92  69  47 SW10      30.05F HX  97

......OKLAHOMA.......

CITY           SKY/WX    TMP DP  RH WIND       PRES   REMARKS
TULSA          MOSUNNY   95  72  47 S17G24    29.93F HX 103
PONCA CITY     SUNNY     97  69  40 SW16G23   29.90F HX 103
MCALESTER      MOSUNNY   91  73  55 S9G18     30.00F HX  99
OKLAHOMA CITY  MOSUNNY   96  68  39 S9G23     29.94F HX 101

......IOWA............

CITY           SKY/WX    TMP DP  RH WIND       PRES   REMARKS
DES MOINES     PTSUNNY   85  73  67 S12       29.85F HX  91
QUAD CITIES    CLOUDY    83  69  62 CALM      29.91F

......ILLINOIS........

CITY           SKY/WX    TMP DP  RH WIND       PRES   REMARKS
QUINCY         MOSUNNY   90  74  59 SW10      29.93S HX  99
CHICAGO        CLOUDY    78  69  73 CALM      29.95F



USA.gov is the U.S. government's official web portal to all federal, state and local government web resources and services.